DateTimeUTC,F1_A11,F1_S11,BsB_S11,BsG_S11,BsR_S11,BbsB_S11,BbsG_S11,BbsR_S11,BaB_A11,BaG_A11,BaR_A11,Tu_S11,T_S11,Uu_S11,U_S11,P_S11,T1_A11
2021-11-24T09:00:00Z,00000200,21000000,,,,,,,0000.08,0000.14,0000.00,18.7,25.4,,00.0,0638.7,30.9
2021-11-24T09:01:00Z,00000200,21000000,,,,,,,0000.25,0000.17,-000.08,18.8,25.4,,00.0,0638.7,30.9
2021-11-24T09:02:00Z,00000200,21000000,,,,,,,-000.21,-000.02,0000.16,18.8,25.5,,00.0,0638.7,30.9
2021-11-24T09:03:00Z,00000200,61000000,,,,,,,0000.29,0000.25,0000.34,18.8,25.5,,00.0,0638.7,30.9
2021-11-24T09:04:00Z,00000200,41000000,0000.17,0000.12,-000.18,-000.45,-000.03,0000.07,0000.16,0000.18,-000.10,19.1,25.4,,00.0,0639.4,30.9
2021-11-24T09:05:00Z,00000200,01000000,0000.64,0000.10,-000.20,0000.58,0000.23,0000.10,0000.53,-000.05,0000.45,19.2,25.4,,00.0,0639.5,30.9
2021-11-24T09:06:00Z,00000200,01000000,-000.30,0000.38,0000.07,-000.03,-000.14,0000.07,0000.27,0000.66,0000.09,19.3,25.4,,00.0,0639.5,30.9
2021-11-24T09:07:00Z,00000200,01000000,0000.11,0000.57,0000.23,-000.61,0000.07,0000.12,-000.27,-000.35,-000.24,19.3,25.4,,00.0,0639.4,30.9
2021-11-24T09:08:00Z,00000200,01000000,0000.20,0000.42,-000.06,-000.12,0000.67,0000.13,0000.24,0000.06,0000.31,19.3,25.4,,00.0,0639.4,30.9
2021-11-24T09:09:00Z,00000200,01000000,0000.15,0000.42,0000.05,0000.16,0000.26,-000.11,0000.11,0000.48,0000.11,19.2,25.4,,00.0,0639.3,30.9
2021-11-24T09:10:00Z,00000200,01000000,0000.19,0000.37,0000.18,0000.05,0000.17,-000.23,0000.63,0000.28,0000.45,19.1,25.4,,00.0,0639.2,30.8
2021-11-24T09:11:00Z,00000200,01000000,0000.06,0000.20,0000.22,0000.19,0000.30,-000.04,0000.05,0000.38,0000.14,19.1,25.3,,00.0,0639.2,30.8
2021-11-24T09:12:00Z,00000200,01000000,-000.20,0000.25,-000.06,-000.28,0000.08,-000.03,0000.40,0000.03,0000.06,19.1,25.3,,00.0,0639.2,30.8
2021-11-24T09:13:00Z,00000200,01000000,-000.22,0000.62,0000.17,-000.19,0000.18,0000.21,0000.02,0000.13,-000.16,19.1,25.3,,00.0,0639.2,30.8
2021-11-24T09:14:00Z,00000200,01000000,0000.12,0000.25,0000.07,-000.13,0000.05,0000.02,0000.22,0000.19,0000.37,19.1,25.3,,00.0,0639.2,30.8
2021-11-24T09:15:00Z,00000200,01000000,0000.35,0000.29,0000.52,-000.33,0000.31,0000.32,0000.20,0000.22,0000.26,19.2,25.3,,00.0,0639.2,30.8
2021-11-24T09:16:00Z,00000200,01000000,-000.09,0000.28,-000.10,-000.08,0000.23,-000.11,0000.29,0000.12,0000.16,19.2,25.3,,00.0,0639.2,30.9
2021-11-24T09:17:00Z,00000200,01000000,0000.52,0000.22,0000.13,0000.08,0000.04,-000.09,-000.01,-000.01,0000.25,19.2,25.4,,00.0,0639.2,30.9
2021-11-24T09:18:00Z,00000200,01000000,-000.05,0000.24,-000.01,0000.21,0000.02,-000.02,-000.01,0000.46,-000.18,19.3,25.4,,00.0,0639.2,30.9
2021-11-24T09:19:00Z,00000200,01000000,0000.15,-000.22,-000.05,0000.16,-000.05,0000.14,0000.37,-000.17,0000.13,19.3,25.4,,00.0,0639.2,30.9
2021-11-24T09:20:00Z,00000200,01000000,-000.35,0000.28,0000.07,-000.03,-000.04,-000.05,0000.15,0000.11,0000.00,19.4,25.4,,00.0,0639.1,30.9
2021-11-24T09:21:00Z,00000200,01000000,0000.56,0000.15,0000.18,0000.37,-000.21,0000.15,0000.04,-000.09,0000.05,19.4,25.4,,00.0,0639.1,30.9
2021-11-24T09:22:00Z,00000200,01000000,0000.33,0001.01,0000.06,-000.05,-000.04,0000.23,0000.14,0000.35,-000.08,19.3,25.4,,00.0,0639.1,30.9
2021-11-24T09:23:00Z,00000200,01000000,0000.09,0000.25,0000.23,0000.50,-000.00,0000.23,-000.04,0000.34,0000.37,19.2,25.4,,00.0,0639.1,30.8
2021-11-24T09:24:00Z,00000200,01000000,-000.29,0000.48,0000.38,-000.34,0000.03,0000.20,0000.35,0000.34,0000.12,19.1,25.4,,00.0,0639.1,30.8
2021-11-24T09:25:00Z,00000200,01000000,-000.05,0000.43,-000.00,-000.95,0000.01,-000.10,0000.69,0000.30,0000.27,19.0,25.3,,00.0,0639.0,30.8
2021-11-24T09:26:00Z,00000200,01000000,0000.36,0000.23,0000.06,0000.16,0000.12,-000.15,0000.01,0000.02,0000.28,19.0,25.3,,00.0,0638.9,30.8
2021-11-24T09:27:00Z,00000200,01000000,0000.19,0000.58,-000.10,-000.13,0000.24,0000.22,0000.41,0000.22,-000.06,19.0,25.3,,00.0,0638.9,30.8
2021-11-24T09:28:00Z,00000200,01000000,0000.49,0000.39,0000.18,0000.20,0000.01,0000.03,0000.34,0000.29,0000.44,19.0,25.3,,00.0,0638.9,30.8
2021-11-24T09:29:00Z,00000200,01000000,0000.65,0000.30,-000.19,0000.27,-000.13,0000.06,0000.03,0000.20,0000.17,19.0,25.3,,00.0,0638.8,30.8
2021-11-24T09:30:00Z,00000200,01000000,0001.00,0000.33,-000.04,0000.23,0000.18,-000.01,0000.16,0000.08,-000.07,19.1,25.3,,00.0,0638.8,30.8
2021-11-24T09:31:00Z,00000200,01000000,-000.06,0000.65,0000.01,-000.18,-000.00,0000.22,0000.29,0000.29,0000.45,19.1,25.3,,00.0,0638.8,30.8
2021-11-24T09:32:00Z,00000200,01000000,0000.77,0000.33,0000.08,-000.06,-000.30,0000.09,-000.00,0000.17,-000.10,19.2,25.3,,00.0,0638.7,30.8
2021-11-24T09:33:00Z,00000200,01000000,0000.02,0000.13,-000.10,-000.04,0000.04,0000.42,0000.27,0000.27,0000.15,19.2,25.4,,00.0,0638.7,30.9
2021-11-24T09:34:00Z,00000200,01000000,-000.01,0000.29,0000.17,0000.22,0000.04,0000.34,0000.11,-000.08,0000.19,19.2,25.4,,00.0,0638.6,30.9
2021-11-24T09:35:00Z,00000200,01000000,0000.42,0000.25,0000.22,0000.12,-000.24,-000.05,0000.17,0000.25,0000.27,19.3,25.4,,00.0,0638.6,30.9
2021-11-24T09:36:00Z,00000200,01000000,0000.49,0000.11,-000.20,-000.49,-000.23,0000.07,-000.01,0000.05,-000.09,19.3,25.4,,00.0,0638.6,30.9
2021-11-24T09:37:00Z,00000200,01000000,0000.11,0000.20,0000.25,-000.97,0000.17,0000.09,-000.03,-000.13,-000.12,19.3,25.4,,00.0,0638.6,30.9
2021-11-24T09:38:00Z,00000200,01000000,-000.37,0000.25,0000.12,-000.61,0000.22,0000.25,0000.28,0000.06,0000.17,19.2,25.4,,00.0,0638.6,30.9
2021-11-24T09:39:00Z,00000200,01000000,0000.35,0000.10,0000.10,0000.66,0000.29,0000.17,-000.04,0000.13,-000.11,19.1,25.4,,00.0,0638.5,30.8
2021-11-24T09:40:00Z,00000200,01000000,0000.56,0000.19,0000.07,-000.03,0000.19,0000.41,0000.47,0000.36,0000.33,19.0,25.3,,00.0,0638.5,30.8
2021-11-24T09:41:00Z,00000200,01000000,0000.52,0000.37,-000.17,0000.11,0000.10,-000.27,0000.24,0000.33,-000.09,19.0,25.3,,00.0,0638.6,30.8
2021-11-24T09:42:00Z,00000200,01000000,0000.35,0000.50,0000.17,0000.25,-000.01,0000.18,0000.28,0000.03,0000.32,19.0,25.3,,00.0,0638.6,30.8
2021-11-24T09:43:00Z,00000200,01000000,-000.12,0000.25,-000.01,0000.24,0000.42,0000.57,-000.08,-000.14,-000.04,19.0,25.3,,00.0,0638.6,30.8
2021-11-24T09:44:00Z,00000200,01000000,0000.15,0000.35,0000.25,0000.04,0000.08,-000.19,0000.30,0000.40,0000.13,19.0,25.3,,00.0,0638.5,30.8
2021-11-24T09:45:00Z,00000200,01000000,0000.75,0000.52,-000.00,0000.26,0000.24,0000.08,0000.16,0000.38,0000.27,19.1,25.3,,00.0,0638.5,30.8
2021-11-24T09:46:00Z,00000200,01000000,-000.35,0000.10,0000.06,-000.08,0000.24,-000.03,-000.07,0000.04,0000.21,19.1,25.3,,00.0,0638.5,30.8
2021-11-24T09:47:00Z,00000200,01000000,0000.33,0000.17,0000.13,0000.26,0000.06,-000.15,0000.36,0000.46,0000.01,19.2,25.3,,00.0,0638.4,30.9
2021-11-24T09:48:00Z,00000200,01000000,-000.08,0000.40,0000.04,-000.59,0000.38,-000.14,0000.17,-000.30,0000.10,19.2,25.4,,00.0,0638.4,30.8
2021-11-24T09:49:00Z,00000200,01000000,-000.26,0000.64,0000.20,0000.07,0000.32,0000.19,0000.41,0000.09,0000.34,19.2,25.4,,00.0,0638.4,30.9
2021-11-24T09:50:00Z,00000200,01000000,0000.83,0000.23,0000.07,0000.00,-000.01,-000.15,-000.40,-000.01,-000.23,19.3,25.4,,00.0,0638.3,30.9
2021-11-24T09:51:00Z,00000200,01000000,0000.37,0000.20,0000.09,-000.52,0000.03,-000.02,0000.25,0000.33,0000.04,19.3,25.4,,00.0,0638.3,30.9
2021-11-24T09:52:00Z,00000200,01000000,0000.04,0000.16,0000.31,-000.31,0000.20,0000.27,0000.46,0000.03,0000.19,19.2,25.4,,00.0,0638.3,30.9
2021-11-24T09:53:00Z,00000200,01000000,0000.11,0000.32,-000.08,-000.29,-000.16,-000.14,-000.10,0000.09,0000.24,19.2,25.4,,00.0,0638.3,30.8
2021-11-24T09:54:00Z,00000200,01000000,0000.30,0000.32,0000.21,-000.08,-000.09,-000.05,0000.51,0000.53,0000.04,19.1,25.4,,00.0,0638.2,30.8
2021-11-24T09:55:00Z,00000200,01000000,-000.04,0000.29,-000.16,-000.65,0000.16,0000.03,0000.19,0000.27,0000.33,19.0,25.3,,00.0,0638.2,30.8
2021-11-24T09:56:00Z,00000200,01000000,-000.56,0000.55,-000.24,0000.69,0000.05,-000.09,0000.17,0000.45,-000.11,18.9,25.3,,00.0,0638.1,30.8
2021-11-24T09:57:00Z,00000200,41000000,,,,,,,-000.47,-000.72,-000.02,19.0,25.3,,00.0,0638.0,30.8
2021-11-24T09:58:00Z,00000200,61000000,,,,,,,-000.00,0000.10,0000.05,18.7,25.4,,00.0,0637.3,30.8
2021-11-24T09:59:00Z,00000200,21000000,,,,,,,0000.35,0000.04,0000.22,18.7,25.5,,00.0,0637.3,30.8
